Location: Castifao
(42.5040°N, 9.1124°E)
Time: 18:01:32
(UTC+00:00)

ATLAS 5 CENTAUR R/B - Pass Details

Date: 23 January 2020
Orbit: 550 x 1108 km, 63.4° (Epoch: 12 February)

Event Time Altitude Azimuth Distance (km) Brightness Sun altitude
Rises 17:25:39 0° 286° (WNW) 2,859 6.0 -11.3°
Reaches altitude 10° 17:30:19 10° 332° (NNW) 2,089 4.4 -12.1°
Maximum altitude 17:30:52 10° 339° (NNW) 2,095 4.4 -12.2°
Drops below altitude 10° 17:31:26 10° 346° (NNW) 2,126 4.3 -12.3°
Enters shadow 17:35:27 - 22° (NNE) 2,894 4.6 -13.0°
